Williams, AZ

7:18 PM MST on December 03, 2016 (GMT -0700)
Grand Canyon National Park

Weather History for KGCN - December, 2013

Change the Weather History Date:

Monday, December 16, 2013

  Actual Average Record
Temperature  
Mean Temperature 40 °F -  
Max Temperature 61 °F 41 °F 61 °F (2013)
Min Temperature 19 °F 12 °F -11 °F (2015)
Degree Days  
Heating Degree Days 25    
Moisture  
Dew Point 18 °F    
Average Humidity 62    
Maximum Humidity 89    
Minimum Humidity 15    
Precipitation  
Precipitation 0.00 in - - ()
Sea Level Pressure  
Sea Level Pressure 30.42 in    
Wind  
Wind Speed 3 mph (ENE)    
Max Wind Speed 9 mph    
Max Gust Speed -    
Visibility 10 miles    
Events      
Averages and records for this station are not official NWS values.
T = Trace of Precipitation, MM = Missing Value Source: NWS Daily Summary

Daily Weather History Graph

Daily Weather History Graph

Search for Another Location

Airport or City:

Trip Planner

Search our weather history database for the weather conditions in past years. The results will help you decide how hot, cold, wet, or windy it might be!

Date:

Astronomy

Dec. 16, 2013 Rise Set
Actual Time 7:32 AM MST 5:16 PM MST
Civil Twilight 7:04 AM MST 5:44 PM MST
Nautical Twilight 6:31 AM MST 6:16 PM MST
Astronomical Twilight 6:00 AM MST 6:48 PM MST
Moon 5:08 PM MST (12/16) 6:45 AM MST (12/16)
Length of Visible Light 10h 40m
Length of Day
9h 43m
Full, 100% of the Moon is Illuminated
Dec 16
Full
Dec 17
Full
Dec 25
Last Quarter
Jan 1
New
Jan 7
First Quarter

Hourly Weather History & Observations

Time (MST) Temp. Windchill Dew Point Humidity Pressure Visibility Wind Dir Wind Speed Gust Speed Precip Events Conditions
12:54 AM 19.9 °F - 17.1 °F 89% 30.40 in 10.0 mi Calm Calm - N/A   Clear
1:54 AM 23.0 °F 18.4 °F 18.0 °F 81% 30.37 in 10.0 mi ENE 3.5 mph - N/A   Clear
2:54 AM 23.0 °F 15.8 °F 17.1 °F 78% 30.37 in 10.0 mi ENE 5.8 mph - N/A   Clear
3:54 AM 21.9 °F 14.5 °F 17.1 °F 82% 30.38 in 10.0 mi NE 5.8 mph - N/A   Clear
4:54 AM 21.0 °F - 16.0 °F 81% 30.39 in 10.0 mi Calm Calm - N/A   Clear
5:54 AM 21.0 °F 14.6 °F 16.0 °F 81% 30.47 in 10.0 mi ENE 4.6 mph - N/A   Clear
6:54 AM 19.9 °F - 16.0 °F 85% 30.50 in 10.0 mi Calm Calm - N/A   Clear
7:54 AM 19.0 °F - 15.1 °F 85% 30.53 in 10.0 mi Calm Calm - N/A   Clear
8:54 AM 28.0 °F 24.2 °F 19.9 °F 72% 30.51 in 10.0 mi NE 3.5 mph - N/A   Clear
9:54 AM 51.1 °F - 18.0 °F 27% 30.41 in 10.0 mi NE 8.1 mph - N/A   Clear
10:54 AM 55.9 °F - 12.9 °F 18% 30.41 in 10.0 mi NE 6.9 mph - N/A   Clear
11:54 AM 55.9 °F - 15.1 °F 20% 30.37 in 10.0 mi NE 5.8 mph - N/A   Clear
12:54 PM 61.0 °F - 12.0 °F 15% 30.34 in 10.0 mi North 3.5 mph - N/A   Clear
1:54 PM 57.9 °F - 21.9 °F 25% 30.32 in 10.0 mi SSW 9.2 mph - N/A   Clear
2:54 PM 57.0 °F - 21.9 °F 26% 30.33 in 10.0 mi SSW 6.9 mph - N/A   Clear
3:54 PM 55.0 °F - 23.0 °F 29% 30.35 in 10.0 mi SSW 9.2 mph - N/A   Clear
4:54 PM 45.0 °F - 23.0 °F 42% 30.40 in 10.0 mi Calm Calm - N/A   Clear
5:54 PM 33.1 °F 30.0 °F 21.0 °F 61% 30.46 in 10.0 mi ENE 3.5 mph - N/A   Clear
6:54 PM 27.0 °F - 19.9 °F 75% 30.49 in 10.0 mi Calm Calm - N/A   Clear
7:54 PM 27.0 °F 21.6 °F 21.0 °F 78% 30.51 in 10.0 mi NE 4.6 mph - N/A   Clear
8:54 PM 25.0 °F - 19.9 °F 81% 30.49 in 10.0 mi Calm Calm - N/A   Clear
9:54 PM 24.1 °F - 19.0 °F 81% 30.40 in 10.0 mi Calm Calm - N/A   Clear
10:54 PM 23.0 °F - 18.0 °F 81% 30.39 in 10.0 mi Calm Calm - N/A   Clear
11:54 PM 21.9 °F - 18.0 °F 85% 30.40 in 10.0 mi Calm Calm - N/A   Clear